User: anonymous   Login
Location: ASU Dark Sky Observatory
(36.2504°N, 81.4125°W)
Time: 23:45:04
(UTC-04:00)
Language:

ETS-7 - Orbit

View from above orbital plane
View from above orbital plane
View from above satellite
View from above satellite

Ground track
Ground track

The orbit data is extracted from the following two-line orbital elements,

1 25064U 97074B   15153.33749796  .00038059  00000-0  26116-3 0  9991
2 25064 034.9508 104.2975 0004391 235.3329 258.9207 15.73584499975829
Epoch (UTC): 02 June 2015 08:05:59
Eccentricity: 0.0004391
inclination: 34.9508°
perigee height: 346 km
apogee height: 351 km
right ascension of ascending node: 104.2975°
argument of perigee: 235.3329°
revolutions per day: 15.73584499
mean anomaly at epoch: 258.9207°
orbit number at epoch: 97582

The dashed part of the orbit path shows where the satellite is in the earth's shadow,  

DLR